Regional Weather Roundup
Issued by NWS Charleston, SC

Current Version | Previous Version | Text Only | Print | Product List | Glossary Off
Versions: 1 2 3 4 5 6 7 8 9 10 11 12 13 14 15 16 17 18 19 20 21 22 23 24 25 26 27 28 29 30 31 32 33 34 35 36 37 38 39 40 41 42 43 44 45 46 47 48 49 50

000
ASUS42 KCHS 220027
RWRCHS

REGIONAL WEATHER ROUNDUP
NATIONAL WEATHER SERVICE CHARLESTON SC
800 PM EDT MON AUG 21 2017

NOTE: "FAIR" INDICATES FEW OR NO CLOUDS BELOW 12,000 FEET WITH NO
SIGNIFICANT WEATHER AND/OR OBSTRUCTIONS TO VISIBILITY.

NOT ALL STATIONS ARE QUALITY CONTROLLED. USE DATA WITH CAUTION...
ESPECIALLY DEWPOINT OBSERVATIONS.

SCZ027-030-031-034>040-042>050-220100-
...SOUTHEAST SOUTH CAROLINA...

CITY           SKY/WX    TMP DP  RH WIND       PRES   REMARKS
N CHARLESTON   MOCLDY    77  76  96 W3        30.14S
6HR MIN TEMP:  74; 6HR MAX TEMP:  89; 6HR PCP:  0.70;

WATERFRONT PRK   N/A     83  78  84 S6        29.98F HX  93
JOHNS ISLAND   FAIR      81  77  89 CALM      30.13S
PINOPOLIS        N/A     79  75  89 CALM      30.07S
MONCKS CORNER  FAIR      73  73 100 CALM      30.14S
SUMMERVILLE    FAIR      73  73 100 CALM      30.16R
BEAUFORT MCAS  LGT RAIN  78  78 100 CALM      30.14S
6HR MIN TEMP:  77; 6HR MAX TEMP:  85; 6HR PCP:  0.07;

BEAUFORT ARPT  FAIR      77  75  94 N5        30.13F
HILTON HEAD IS CLOUDY    81  77  89 NE7       30.13F
WALTERBORO     CLOUDY    73  73 100 CALM      30.15S
ALLENDALE      NOT AVBL

...SOUTHERN MIDLANDS AND PEE DEE...

CITY           SKY/WX    TMP DP  RH WIND       PRES   REMARKS
GEORGETOWN     FAIR      79  79 100 CALM      30.16R
KINGSTREE      FAIR      79  77  94 CALM      30.14S
ORANGEBURG     CLOUDY    78  71  79 S6        30.16R
6HR MIN TEMP:  78; 6HR MAX TEMP:  91;

BARNWELL       FAIR      79  75  89 SE3       30.15S
AIKEN          FAIR      77  72  83 S6        30.19R
MANNING        FAIR      79  77  94 S5        30.15R
COLUMBIA       CLOUDY    85  72  65 S9        30.13R HX  91
6HR MIN TEMP:  85; 6HR MAX TEMP:  94;

SUMTER         MOCLDY    82  74  76 S7        30.13R
6HR MIN TEMP:  82; 6HR MAX TEMP:  94;

FLORENCE       CLOUDY    83  75  77 S7        30.14S HX  90
6HR MIN TEMP:  83; 6HR MAX TEMP:  92;

MYRTLE BEACH   PTCLDY    82  77  83 SE10      30.15S HX  91
N MYRTLE BEACH MOCLDY    81  76  84 SE6       30.15R
6HR MIN TEMP:  80; 6HR MAX TEMP:  85;


$$

GAZ063-065-086>088-099>101-113>116-118-119-134>141-150-220100-
...SOUTHEAST GEORGIA...

CITY           SKY/WX    TMP DP  RH WIND       PRES   REMARKS
SAVANNAH ARPT  CLOUDY    78  74  87 NE3       30.14F
6HR MIN TEMP:  77; 6HR MAX TEMP:  84; 6HR PCP:  0.03;

HUNTER AAF     MOCLDY    80  75  85 CALM      30.10F
6HR MIN TEMP:  77; 6HR MAX TEMP:  83; 6HR PCP:  0.08;

FORT STEWART   PTCLDY    79  74  84 CALM      30.11F
6HR MIN TEMP:  77; 6HR MAX TEMP:  81; 6HR PCP:  0.03;

STATESBORO     CLOUDY    81  73  76 CALM      30.13F
SYLVANIA         N/A     77  76  95 CALM      30.16S
CLAXTON        FAIR      80  77  91 CALM      30.14S

...CSRA...CENTRAL AND FAR SOUTHEAST GEORGIA...

CITY           SKY/WX    TMP DP  RH WIND       PRES   REMARKS
THOMSON        PTCLDY    81  73  78 SW3       30.20R
AUGUSTA-BUSH   PTCLDY    83  75  77 SE6       30.14R HX  90
6HR MIN TEMP:  83; 6HR MAX TEMP:  93;

AUGUSTA-DANIEL PTCLDY    83  72  69 S8        30.16R
SWAINSBORO     FAIR      81  73  78 SE5       30.15S
VIDALIA        PTCLDY    81  75  83 CALM      30.15R
EASTMAN        FAIR      83  66  57 CALM      30.16R
HAZLEHURST     FAIR      83  66  55 CALM      30.13S
ALMA           CLOUDY    82  73  74 E3        30.13R
6HR MIN TEMP:  77; 6HR MAX TEMP:  88; 6HR PCP:  0.03;

WAYCROSS       CLOUDY    80  74  82 SE5       30.14R
JESUP          MOCLDY    81  73  78 CALM      30.14S
BAXLEY         FAIR      79  77  94 CALM      30.14S
BRUNSWICK      MOCLDY    79  72  78 NE3       30.14S
SAINT SIMONS   MOCLDY    81  75  82 NE5       30.12S
6HR MIN TEMP:  77; 6HR MAX TEMP:  85;


$$

SCZ027-028-034-036>038-045-046-048>050-GAZ119-141-220100-
...LAKE AND SUPPLEMENTAL COASTAL OBSERVATIONS...

STATION/POSITION TIME  TEMP    WIND        PRES    WAVE   SWELL
                       AIR SEA DIR/SP/G            HT/PER HT/PER/DIR
                 (UTC) (F)     (DEG/KT/KT) (MB)    (FT/S) (FT/S/D)
WINYAH BAY       2345   83     140/  5     1021.0S
LAKE MURRAY      0020   83     180/ 16/ 19 1019.6R
ACE BASIN NERRS  2345   76        CALM     1021.0S
FORT PULASKI     0000   82 87  130/  3/  5 1020.4
SAPELO ISLAND    0000   79        CALM     1020.0

$$

ANZ835-935-AMZ111-154-330-350-352-354-370-450-454-472-220100-
...C-MAN AND BUOY OBSERVATIONS...

STATION/POSITION TIME  TEMP    WIND        PRES    WAVE   SWELL
                       AIR SEA DIR/SP/G            HT/PER HT/PER/DIR
                 (UTC) (F)     (DEG/KT/KT) (MB)    (FT/S) (FT/S/D)
BUOY 41004       0010   82 85  140/  4/  6 1019.8
BUOY 41008       2350   81 85  140/  8/ 10 1019.7R   2/ 8   2/130/ 8
FOLLY BEACH CMAN 0000   82     120/  6/  7 1021.1S
CAPERS NEARSHORE 0008   80 86  170/  6/ 10 1020.1S
FRIPP NEARSHORE  0008   83     100/  6/ 10 1019.6F


STATION/POSITION TIME  TEMP    WIND        PRES    WAVE   SWELL
                       AIR SEA DIR/SP/G            HT/PER HT/PER/DIR
                 (UTC) (F)     (DEG/KT/KT) (MB)    (FT/S) (FT/S/D)
5E ST. MARYS GA  2330      84                N/A     2/ 8
FRYING PAN BUOY  0010   83 84  150/ 10/ 12 1020.4
BUOY 41025       2350   83 84  120/  2/  2 1021.3R   3/ 8   2/130/ 8
CAPE LOOKOUT NC  0000   81     120/  4/  5 1021.1R
BUOY 41002       2350   83 85  110/  4/  6 1021.4R   3/ 9   3/110/ 9
BUOY 41010       0010   85 85   90/ 12/ 14 1019.3
ST AUGUSTINE FL  0000   83 82   90/  6/  7 1020.1R


$$



USA.gov is the U.S. government's official web portal to all federal, state and local government web resources and services.